Location: ?????
(44.4284°N, 135.2222°E)
Time: 12:11:34
(UTC+00:00)

Cosmos 1766 Rocket - Pass Details

Date: 10 August 2025
Orbit: 599 x 624 km, 82.5° (Epoch: 16 December)

Event Time Altitude Azimuth Distance (km) Brightness Sun altitude
Exits shadow 15:12:07 25° 52° (NE) 1,246 5.4 -30.2°
Drops below altitude 10° 15:14:29 10° 27° (NNE) 1,989 6.9 -30.2°
Sets 15:16:53 0° 18° (NNE) 2,904 8.1 -30.1°
